| time (UTC) | temp F | wind direction | speed knots | gust knots | rain 1hr in | rain 24hr in | rain mn in | humidity % | barometer mb |
| 20260831053050 | 73 | 217 | 0.0 | 0.0 | 0.00 | 0.00 | 0.00 | 80 | 1012.0 |
| 20260831051549 | 73 | 241 | 0.0 | 3.5 | 0.00 | 0.00 | 0.00 | 79 | 1012.0 |
| 20260831044603 | 74 | 218 | 0.0 | 4.3 | 0.00 | 0.00 | 0.00 | 77 | 1012.0 |
| 20260831043048 | 75 | 249 | 0.0 | 3.5 | 0.00 | 0.00 | 0.00 | 75 | 1011.7 |
| 20260831041557 | 75 | 213 | 0.0 | 5.2 | 0.00 | 0.00 | 0.00 | 74 | 1011.8 |
| 20260831040046 | 76 | 171 | 0.0 | 3.5 | 0.00 | 0.00 | 0.00 | 73 | 1011.6 |
| 20260831034546 | 76 | 182 | 0.9 | 2.6 | 0.00 | 0.00 | 0.00 | 73 | 1011.2 |
| 20260831033048 | 77 | 203 | 0.0 | 3.5 | 0.00 | 0.00 | 0.00 | 72 | 1010.9 |
| 20260831031549 | 78 | 202 | 0.0 | 3.5 | 0.00 | 0.00 | 0.00 | 71 | 1010.7 |
| 20260831030044 | 78 | 175 | 0.0 | 4.3 | 0.00 | 0.00 | 0.00 | 69 | 1010.7 |
| 20260831024607 | 79 | 181 | 0.0 | 4.3 | 0.00 | 0.00 | 0.00 | 68 | 1010.6 |
| 20260831023042 | 79 | 170 | 1.7 | 7.0 | 0.00 | 0.00 | 0.00 | 67 | 1010.6 |
| 20260831021543 | 80 | 178 | 2.6 | 7.0 | 0.00 | 0.00 | 0.00 | 64 | 1010.4 |
| 20260831014556 | 82 | 157 | 0.9 | 6.1 | 0.00 | 0.00 | 0.00 | 61 | 1010.3 |
| 20260831013038 | 83 | 230 | 1.7 | 5.2 | 0.00 | 0.00 | 0.00 | 59 | 1010.2 |
| 20260831011538 | 84 | 156 | 3.5 | 7.0 | 0.00 | 0.00 | 0.00 | 58 | 1010.2 |
| 20260831010045 | 85 | 195 | 2.6 | 8.7 | 0.00 | 0.00 | 0.00 | 55 | 1010.1 |
| 20260831004534 | 86 | 226 | 0.9 | 7.0 | 0.00 | 0.00 | 0.00 | 52 | 1010.2 |
| 20260831003034 | 87 | 171 | 1.7 | 6.1 | 0.00 | 0.00 | 0.00 | 49 | 1010.4 |
| 20260831001540 | 88 | 149 | 4.3 | 7.8 | 0.00 | 0.00 | 0.00 | 45 | 1010.3 |
| 20260831000030 | 89 | 175 | 3.5 | 8.7 | 0.00 | 0.00 | 0.00 | 42 | 1010.3 |
| 20260830234541 | 89 | 180 | 1.7 | 8.7 | 0.00 | 0.00 | 0.00 | 39 | 1010.3 |
| 20260830233029 | 90 | 159 | 4.3 | 7.8 | 0.00 | 0.00 | 0.00 | 36 | 1010.3 |
| 20260830231528 | 90 | 179 | 2.6 | 7.8 | 0.00 | 0.00 | 0.00 | 37 | 1010.3 |
| 20260830230034 | 90 | 166 | 4.3 | 8.7 | 0.00 | 0.00 | 0.00 | 37 | 1010.3 |
| 20260830224533 | 91 | 226 | 4.3 | 7.8 | 0.00 | 0.00 | 0.00 | 37 | 1010.3 |
| 20260830223026 | 92 | 156 | 2.6 | 7.0 | 0.00 | 0.00 | 0.00 | 33 | 1010.3 |
| 20260830221525 | 92 | 176 | 2.6 | 7.8 | 0.00 | 0.00 | 0.00 | 32 | 1010.6 |
| 20260830220031 | 92 | 218 | 3.5 | 7.8 | 0.00 | 0.00 | 0.00 | 33 | 1010.8 |
| 20260830214523 | 92 | 161 | 4.3 | 8.7 | 0.00 | 0.00 | 0.00 | 33 | 1010.9 |
| 20260830213022 | 92 | 275 | 1.7 | 8.7 | 0.00 | 0.00 | 0.00 | 34 | 1010.9 |
| 20260830211521 | 93 | 160 | 4.3 | 7.8 | 0.00 | 0.00 | 0.00 | 34 | 1010.9 |
| 20260830210018 | 93 | 187 | 3.5 | 8.7 | 0.00 | 0.00 | 0.00 | 35 | 1011.2 |
| 20260830204516 | 93 | 161 | 3.5 | 8.7 | 0.00 | 0.00 | 0.00 | 36 | 1011.3 |
| 20260830203015 | 92 | 209 | 2.6 | 10.4 | 0.00 | 0.00 | 0.00 | 38 | 1011.4 |
| 20260830201544 | 92 | 149 | 3.5 | 9.6 | 0.00 | 0.00 | 0.00 | 39 | 1011.5 |
| 20260830200013 | 93 | 166 | 3.5 | 9.6 | 0.00 | 0.00 | 0.00 | 42 | 1011.4 |
| 20260830194512 | 92 | 149 | 2.6 | 7.8 | 0.00 | 0.00 | 0.00 | 46 | 1011.4 |
| 20260830193009 | 91 | 209 | 3.5 | 7.8 | 0.00 | 0.00 | 0.00 | 47 | 1011.6 |
| 20260830191505 | 92 | 177 | 3.5 | 8.7 | 0.00 | 0.00 | 0.00 | 45 | 1011.7 |
| 20260830190001 | 92 | 245 | 2.6 | 7.8 | 0.00 | 0.00 | 0.00 | 47 | 1011.7 |
| 20260830184557 | 91 | 163 | 2.6 | 6.1 | 0.00 | 0.00 | 0.00 | 50 | 1011.7 |
| 20260830183055 | 91 | 192 | 0.9 | 6.1 | 0.00 | 0.00 | 0.00 | 51 | 1011.7 |
| 20260830181605 | 90 | 163 | 3.5 | 7.0 | 0.00 | 0.00 | 0.00 | 52 | 1011.8 |
| 20260830180049 | 88 | 204 | 3.5 | 7.0 | 0.00 | 0.00 | 0.00 | 54 | 1011.9 |
| 20260830174543 | 87 | 209 | 1.7 | 6.1 | 0.00 | 0.00 | 0.00 | 55 | 1011.8 |
| 20260830173039 | 86 | 259 | 1.7 | 4.3 | 0.00 | 0.00 | 0.00 | 59 | 1011.7 |
| 20260830171537 | 84 | 149 | 3.5 | 6.1 | 0.00 | 0.00 | 0.00 | 62 | 1011.7 |
| 20260830170031 | 82 | 149 | 1.7 | 4.3 | 0.00 | 0.00 | 0.00 | 67 | 1011.7 |
| 20260830164531 | 81 | 149 | 0.9 | 4.3 | 0.00 | 0.00 | 0.00 | 70 | 1011.5 |
| 20260830163028 | 80 | 226 | 0.9 | 4.3 | 0.00 | 0.00 | 0.00 | 72 | 1011.6 |
| 20260830161520 | 78 | 167 | 0.0 | 4.3 | 0.00 | 0.00 | 0.00 | 75 | 1011.6 |
| 20260830160015 | 76 | 223 | 0.0 | 4.3 | 0.00 | 0.00 | 0.00 | 78 | 1011.7 |
| 20260830154509 | 75 | 144 | 0.9 | 3.5 | 0.00 | 0.00 | 0.00 | 81 | 1011.7 |
| 20260830153018 | 74 | 168 | 1.7 | 4.3 | 0.00 | 0.00 | 0.00 | 86 | 1011.7 |
| 20260830151503 | 73 | 174 | 0.0 | 3.5 | 0.00 | 0.00 | 0.00 | 87 | 1011.8 |
| 20260830150105 | 72 | 161 | 0.9 | 3.5 | 0.00 | 0.00 | 0.00 | 88 | 1011.9 |
| 20260830144557 | 71 | 144 | 0.0 | 0.0 | 0.00 | 0.00 | 0.00 | 88 | 1011.9 |
| 20260830143102 | 70 | 139 | 0.0 | 0.0 | 0.00 | 0.00 | 0.00 | 87 | 1011.8 |
| 20260830141554 | 70 | 104 | 0.0 | 0.0 | 0.00 | 0.00 | 0.00 | 87 | 1011.8 |
| 20260830140050 | 69 | 104 | 0.0 | 0.0 | 0.00 | 0.00 | 0.00 | 86 | 1011.6 |
| 20260830134550 | 69 | 104 | 0.0 | 0.0 | 0.00 | 0.00 | 0.00 | 85 | 1011.4 |
| 20260830133047 | 69 | 28 | 0.0 | 0.0 | 0.00 | 0.00 | 0.00 | 86 | 1011.4 |
| 20260830131543 | 69 | 109 | 0.0 | 0.0 | 0.00 | 0.00 | 0.00 | 85 | 1011.2 |
| 20260830130045 | 69 | 109 | 0.0 | 0.0 | 0.00 | 0.00 | 0.00 | 85 | 1011.2 |
| 20260830124543 | 70 | 109 | 0.0 | 0.0 | 0.00 | 0.00 | 0.00 | 85 | 1011.2 |
| 20260830123040 | 70 | 109 | 0.0 | 0.0 | 0.00 | 0.00 | 0.00 | 85 | 1011.1 |
| 20260830121538 | 71 | 109 | 0.0 | 0.0 | 0.00 | 0.00 | 0.00 | 85 | 1011.0 |
| 20260830120046 | 71 | 169 | 0.0 | 0.0 | 0.00 | 0.00 | 0.00 | 84 | 1011.1 |
| 20260830114546 | 71 | 228 | 0.0 | 1.7 | 0.00 | 0.00 | 0.00 | 83 | 1011.1 |
| 20260830113034 | 70 | 68 | 0.0 | 0.0 | 0.00 | 0.00 | 0.00 | 81 | 1010.9 |
| 20260830111532 | 71 | 68 | 0.0 | 1.7 | 0.00 | 0.00 | 0.00 | 81 | 1010.9 |
| 20260830110030 | 71 | 68 | 0.0 | 1.7 | 0.00 | 0.00 | 0.00 | 80 | 1010.9 |
| 20260830104529 | 71 | 43 | 0.0 | 0.0 | 0.00 | 0.00 | 0.00 | 80 | 1010.9 |
| 20260830103028 | 71 | 43 | 0.0 | 0.0 | 0.00 | 0.00 | 0.00 | 79 | 1010.8 |
| 20260830101527 | 71 | 43 | 0.0 | 0.0 | 0.00 | 0.00 | 0.00 | 78 | 1010.8 |
| 20260830100033 | 72 | 43 | 0.0 | 3.5 | 0.00 | 0.00 | 0.00 | 78 | 1010.8 |
| 20260830094554 | 72 | 149 | 0.0 | 1.7 | 0.00 | 0.00 | 0.00 | 77 | 1010.7 |
| 20260830093021 | 72 | 299 | 0.0 | 0.0 | 0.00 | 0.00 | 0.00 | 76 | 1010.7 |
| 20260830091520 | 73 | 299 | 0.0 | 0.0 | 0.00 | 0.00 | 0.00 | 75 | 1010.8 |
| 20260830090038 | 73 | 299 | 0.0 | 0.0 | 0.00 | 0.00 | 0.00 | 75 | 1010.8 |
| 20260830084515 | 73 | 299 | 0.0 | 0.0 | 0.00 | 0.00 | 0.00 | 75 | 1010.7 |
| 20260830083013 | 74 | 299 | 0.0 | 0.0 | 0.00 | 0.00 | 0.00 | 74 | 1010.6 |
| 20260830081510 | 74 | 299 | 0.0 | 0.0 | 0.00 | 0.00 | 0.00 | 74 | 1010.6 |
| 20260830080016 | 74 | 247 | 0.0 | 0.0 | 0.00 | 0.00 | 0.00 | 72 | 1010.7 |
| 20260830074504 | 75 | 247 | 0.0 | 0.0 | 0.00 | 0.00 | 0.00 | 72 | 1010.6 |
| 20260830073114 | 75 | 247 | 0.0 | 0.0 | 0.00 | 0.00 | 0.00 | 72 | 1010.6 |
| 20260830071558 | 76 | 247 | 0.0 | 0.0 | 0.00 | 0.00 | 0.00 | 72 | 1010.7 |
| 20260830070054 | 76 | 247 | 0.0 | 0.0 | 0.00 | 0.00 | 0.00 | 72 | 1010.7 |
| 20260830064552 | 77 | 247 | 0.0 | 0.0 | 0.00 | 0.00 | 0.00 | 70 | 1010.6 |
| 20260830063053 | 77 | 247 | 0.0 | 0.9 | 0.00 | 0.00 | 0.00 | 69 | 1010.9 |
| 20260830061618 | 77 | 275 | 0.0 | 1.7 | 0.00 | 0.00 | 0.00 | 69 | 1010.8 |
| 20260830060051 | 78 | 238 | 0.0 | 0.0 | 0.00 | 0.00 | 0.00 | 67 | 1010.7 |
| 20260830054554 | 78 | 238 | 0.0 | 4.3 | 0.00 | 0.00 | 0.00 | 67 | 1010.8 |